timestamp,wind_dir_avg,wind_spd_avg,wind_spd_max_dir,wind_spd_gust,battery_voltage,lat,long
2021-12-12 00:04:01+00:00,235.0,5.58,236.0,6.38,12.57,47.59359,-54.27349
2021-12-12 00:14:01+00:00,242.0,5.96,242.0,6.76,12.57,47.59359,-54.27349
2021-12-12 00:24:01+00:00,233.0,6.37,235.0,7.18,12.57,47.59359,-54.27349
2021-12-12 00:34:01+00:00,229.0,4.47,240.0,6.56,12.57,47.59359,-54.27349
2021-12-12 00:44:01+00:00,228.0,5.36,235.0,6.89,12.57,47.59359,-54.27349
2021-12-12 00:54:01+00:00,220.0,5.54,222.0,6.33,12.57,47.59359,-54.27349
2021-12-12 01:04:01+00:00,223.0,5.58,225.0,6.18,12.57,47.59359,-54.27349
2021-12-12 01:14:01+00:00,222.0,5.98,228.0,6.55,12.57,47.59359,-54.27349
2021-12-12 01:24:01+00:00,237.0,6.06,249.0,7.19,12.57,47.59359,-54.27349
2021-12-12 01:34:01+00:00,233.0,6.88,232.0,7.34,12.57,47.59359,-54.27349
2021-12-12 01:44:01+00:00,235.0,6.11,239.0,7.33,12.57,47.59359,-54.27349
2021-12-12 01:54:01+00:00,218.0,5.41,234.0,6.91,12.57,47.59359,-54.27349
2021-12-12 02:04:01+00:00,233.0,7.23,233.0,7.63,12.57,47.59359,-54.27349
2021-12-12 02:14:01+00:00,216.0,6.88,231.0,8.86,12.57,47.59359,-54.27349
2021-12-12 02:24:01+00:00,190.0,5.52,223.0,7.27,12.57,47.59359,-54.27349
2021-12-12 02:34:01+00:00,180.0,4.46,185.0,5.62,12.57,47.59359,-54.27349
2021-12-12 02:44:01+00:00,200.0,6.8,211.0,7.85,12.57,47.59359,-54.27349
2021-12-12 02:54:01+00:00,193.0,10.1,195.0,11.33,12.57,47.59359,-54.27349
2021-12-12 03:04:01+00:00,199.0,9.9,216.0,12.92,12.57,47.59359,-54.27349
2021-12-12 03:14:01+00:00,195.0,8.57,207.0,9.72,12.49,47.59359,-54.27349
2021-12-12 03:24:01+00:00,196.0,10.13,200.0,11.27,12.49,47.59359,-54.27349
2021-12-12 03:34:01+00:00,202.0,8.98,205.0,10.43,12.49,47.59359,-54.27349
2021-12-12 03:44:01+00:00,206.0,11.24,220.0,14.11,12.49,47.59359,-54.27349
2021-12-12 03:54:01+00:00,192.0,11.42,197.0,12.68,12.49,47.59359,-54.27349
2021-12-12 04:04:01+00:00,199.0,11.12,215.0,14.33,12.49,47.59359,-54.27349
2021-12-12 04:14:01+00:00,196.0,9.89,210.0,11.53,12.49,47.59359,-54.27349
2021-12-12 04:24:01+00:00,208.0,9.25,214.0,10.24,12.49,47.59359,-54.27349
2021-12-12 04:34:01+00:00,216.0,7.75,221.0,9.21,12.49,47.59359,-54.27349
2021-12-12 04:44:01+00:00,183.0,6.92,206.0,8.26,12.49,47.59359,-54.27349
2021-12-12 04:54:01+00:00,180.0,8.2,182.0,8.96,12.49,47.59359,-54.27349
2021-12-12 05:04:01+00:00,166.0,9.48,156.0,11.38,12.49,47.59359,-54.27349
2021-12-12 05:14:00+00:00,179.0,10.15,182.0,11.05,12.49,47.59359,-54.27349
2021-12-12 05:24:00+00:00,164.0,9.14,148.0,10.95,12.49,47.59359,-54.27349
2021-12-12 05:34:00+00:00,155.0,11.9,159.0,13.77,12.49,47.59359,-54.27349
2021-12-12 05:44:00+00:00,148.0,11.32,153.0,12.73,12.49,47.59359,-54.27349
2021-12-12 05:54:00+00:00,151.0,12.29,156.0,14.25,12.49,47.59359,-54.27349
2021-12-12 06:04:00+00:00,151.0,12.31,152.0,13.87,12.49,47.59359,-54.27349
2021-12-12 06:14:01+00:00,154.0,12.94,153.0,14.2,12.49,47.59359,-54.27349
2021-12-12 06:24:01+00:00,160.0,13.72,162.0,16.15,12.49,47.59359,-54.27349
2021-12-12 06:34:01+00:00,163.0,11.98,159.0,14.24,12.49,47.59359,-54.27349
2021-12-12 06:44:01+00:00,167.0,11.55,170.0,13.93,12.49,47.59359,-54.27349
2021-12-12 06:54:01+00:00,164.0,12.35,158.0,13.76,12.49,47.59359,-54.27349
2021-12-12 07:04:01+00:00,157.0,11.73,157.0,14.85,12.49,47.59359,-54.27349
2021-12-12 07:14:00+00:00,180.0,12.21,189.0,14.44,12.49,47.59359,-54.27349
2021-12-12 07:24:00+00:00,180.0,11.07,186.0,13.65,12.49,47.59359,-54.27349
2021-12-12 07:34:00+00:00,171.0,12.99,160.0,15.14,12.49,47.59359,-54.27349
2021-12-12 07:44:00+00:00,179.0,13.33,166.0,15.91,12.49,47.59359,-54.27349
2021-12-12 07:54:00+00:00,176.0,12.25,164.0,15.62,12.49,47.59359,-54.27349
2021-12-12 08:04:00+00:00,184.0,14.66,191.0,17.26,12.49,47.59359,-54.27349
2021-12-12 08:14:00+00:00,190.0,12.76,196.0,14.11,12.41,47.59359,-54.27349
2021-12-12 08:24:00+00:00,193.0,13.55,193.0,15.48,12.41,47.59359,-54.27349
2021-12-12 08:34:00+00:00,192.0,13.0,190.0,15.32,12.41,47.59359,-54.27349
2021-12-12 08:44:00+00:00,195.0,14.05,195.0,18.19,12.41,47.59359,-54.27349
2021-12-12 08:54:00+00:00,204.0,15.6,202.0,17.72,12.41,47.59359,-54.27349
2021-12-12 09:04:00+00:00,203.0,13.51,203.0,15.48,12.41,47.59359,-54.27349
2021-12-12 09:14:00+00:00,204.0,13.07,207.0,15.06,12.41,47.59359,-54.27349
2021-12-12 09:24:00+00:00,211.0,11.99,212.0,14.21,12.41,47.59359,-54.27349
2021-12-12 09:34:00+00:00,211.0,12.42,215.0,14.46,12.41,47.59359,-54.27349
2021-12-12 09:44:00+00:00,213.0,12.07,222.0,13.79,12.41,47.59359,-54.27349
2021-12-12 09:54:00+00:00,215.0,12.13,214.0,13.71,12.41,47.59359,-54.27349
2021-12-12 10:04:00+00:00,213.0,13.71,217.0,15.61,12.41,47.59359,-54.27349
2021-12-12 10:14:00+00:00,224.0,13.3,224.0,15.71,12.41,47.59359,-54.27349
2021-12-12 10:24:00+00:00,222.0,13.3,227.0,15.54,12.41,47.59359,-54.27349
2021-12-12 10:34:00+00:00,222.0,15.93,232.0,20.4,12.41,47.59359,-54.27349
2021-12-12 10:44:00+00:00,223.0,15.82,227.0,21.11,12.41,47.59359,-54.27349
2021-12-12 10:54:00+00:00,222.0,13.75,225.0,16.35,12.41,47.59359,-54.27349
2021-12-12 11:04:00+00:00,225.0,12.49,228.0,15.24,12.41,47.59359,-54.27349
2021-12-12 11:14:01+00:00,224.0,13.25,229.0,16.32,12.41,47.59359,-54.27349
2021-12-12 11:24:01+00:00,227.0,12.32,226.0,14.89,12.41,47.59359,-54.27349
2021-12-12 11:34:01+00:00,224.0,11.57,222.0,14.25,12.41,47.59359,-54.27349
2021-12-12 11:44:01+00:00,224.0,12.79,226.0,15.88,12.41,47.59359,-54.27349
2021-12-12 11:54:01+00:00,222.0,12.46,227.0,17.0,12.41,47.59359,-54.27349
2021-12-12 12:04:01+00:00,225.0,13.44,235.0,16.72,12.41,47.59359,-54.27349
2021-12-12 12:14:01+00:00,216.0,12.31,216.0,14.1,12.41,47.59359,-54.27349
2021-12-12 12:24:01+00:00,216.0,13.16,219.0,15.02,12.41,47.59359,-54.27349
2021-12-12 12:34:01+00:00,215.0,13.48,215.0,15.19,12.41,47.59359,-54.27349
2021-12-12 12:44:01+00:00,217.0,12.74,212.0,15.16,12.41,47.59359,-54.27349
2021-12-12 12:54:01+00:00,219.0,13.43,222.0,16.7,12.41,47.59359,-54.27349
2021-12-12 13:04:01+00:00,222.0,13.4,225.0,15.72,12.41,47.59359,-54.27349
2021-12-12 13:14:01+00:00,221.0,15.12,228.0,21.74,12.41,47.59359,-54.27349
2021-12-12 13:24:01+00:00,225.0,13.89,216.0,17.41,12.41,47.59359,-54.27349
2021-12-12 13:34:01+00:00,224.0,12.44,226.0,16.86,12.41,47.59359,-54.27349
2021-12-12 13:44:01+00:00,225.0,13.66,222.0,17.59,12.41,47.59359,-54.27349
2021-12-12 13:54:01+00:00,227.0,15.51,230.0,20.95,12.41,47.59359,-54.27349
2021-12-12 14:04:01+00:00,230.0,18.51,239.0,21.97,12.41,47.59359,-54.27349
2021-12-12 14:14:01+00:00,228.0,16.1,239.0,20.07,12.41,47.59359,-54.27349
2021-12-12 14:24:01+00:00,229.0,18.72,233.0,21.69,12.41,47.59359,-54.27349
2021-12-12 14:34:01+00:00,229.0,18.03,233.0,21.71,12.41,47.59359,-54.27349
2021-12-12 14:44:01+00:00,231.0,19.69,224.0,23.07,12.41,47.59359,-54.27349
2021-12-12 14:54:01+00:00,227.0,17.66,230.0,22.27,12.41,47.59359,-54.27349
2021-12-12 15:04:01+00:00,227.0,17.61,230.0,21.81,12.41,47.59359,-54.27349
2021-12-12 15:14:01+00:00,225.0,19.1,227.0,23.23,12.41,47.59359,-54.27349
2021-12-12 15:24:01+00:00,220.0,17.94,228.0,22.79,12.41,47.59359,-54.27349
2021-12-12 15:34:01+00:00,219.0,16.88,228.0,21.01,12.41,47.59359,-54.27349
2021-12-12 15:44:01+00:00,217.0,15.14,218.0,17.95,12.41,47.59359,-54.27349
2021-12-12 15:54:01+00:00,228.0,20.14,226.0,22.89,12.41,47.59359,-54.27349
2021-12-12 16:04:01+00:00,226.0,19.73,226.0,27.23,12.41,47.59359,-54.27349
2021-12-12 16:14:01+00:00,221.0,19.43,221.0,23.92,12.41,47.59359,-54.27349
2021-12-12 16:24:01+00:00,220.0,17.32,215.0,20.51,12.41,47.59359,-54.27349
2021-12-12 16:34:01+00:00,218.0,16.27,216.0,19.34,12.41,47.59359,-54.27349
2021-12-12 16:44:01+00:00,223.0,17.03,224.0,21.87,12.41,47.59359,-54.27349
2021-12-12 16:54:01+00:00,222.0,16.86,232.0,21.34,12.41,47.59359,-54.27349
2021-12-12 17:04:01+00:00,227.0,18.85,226.0,23.06,12.41,47.59359,-54.27349
2021-12-12 17:14:01+00:00,213.0,16.17,210.0,18.8,12.49,47.59359,-54.27349
2021-12-12 17:24:01+00:00,213.0,16.48,223.0,21.07,12.49,47.59359,-54.27349
2021-12-12 17:34:01+00:00,218.0,15.95,228.0,20.94,12.49,47.59359,-54.27349
2021-12-12 17:44:01+00:00,219.0,16.34,225.0,21.87,12.49,47.59359,-54.27349
2021-12-12 17:54:01+00:00,220.0,16.22,218.0,19.95,12.49,47.59359,-54.27349
2021-12-12 18:04:01+00:00,217.0,15.12,226.0,19.28,12.49,47.59359,-54.27349
2021-12-12 18:14:01+00:00,220.0,16.96,226.0,20.75,12.41,47.59359,-54.27349
2021-12-12 18:24:01+00:00,214.0,15.37,220.0,17.66,12.41,47.59359,-54.27349
2021-12-12 18:34:01+00:00,216.0,14.66,223.0,16.98,12.41,47.59359,-54.27349
2021-12-12 18:44:01+00:00,218.0,15.12,216.0,19.24,12.41,47.59359,-54.27349
2021-12-12 18:54:01+00:00,214.0,16.24,211.0,17.97,12.41,47.59359,-54.27349
2021-12-12 19:04:01+00:00,216.0,15.04,214.0,17.13,12.41,47.59359,-54.27349
2021-12-12 19:14:01+00:00,220.0,16.49,225.0,19.41,12.41,47.59359,-54.27349
2021-12-12 19:24:01+00:00,228.0,16.2,226.0,21.05,12.41,47.59359,-54.27349
2021-12-12 19:34:01+00:00,233.0,16.65,240.0,21.42,12.41,47.59359,-54.27349
2021-12-12 19:44:01+00:00,231.0,15.55,236.0,19.88,12.41,47.59359,-54.27349
2021-12-12 19:54:01+00:00,226.0,13.13,231.0,16.79,12.41,47.59359,-54.27349
2021-12-12 20:04:01+00:00,232.0,13.74,236.0,16.86,12.41,47.59359,-54.27349
2021-12-12 20:14:01+00:00,247.0,11.88,247.0,12.98,12.41,47.59359,-54.27349
2021-12-12 20:24:01+00:00,242.0,10.61,237.0,12.5,12.41,47.59359,-54.27349
2021-12-12 20:34:01+00:00,252.0,12.6,255.0,15.3,12.41,47.59359,-54.27349
2021-12-12 20:44:01+00:00,250.0,13.44,252.0,15.69,12.41,47.59359,-54.27349
2021-12-12 20:54:01+00:00,259.0,14.36,260.0,15.48,12.41,47.59359,-54.27349
2021-12-12 21:04:01+00:00,260.0,13.81,259.0,15.06,12.41,47.59359,-54.27349
2021-12-12 21:14:01+00:00,259.0,11.3,261.0,14.15,12.41,47.59359,-54.27349
2021-12-12 21:24:01+00:00,261.0,13.56,257.0,15.15,12.41,47.59359,-54.27349
2021-12-12 21:34:01+00:00,259.0,13.64,258.0,15.29,12.41,47.59359,-54.27349
2021-12-12 21:44:01+00:00,259.0,13.86,257.0,15.31,12.41,47.59359,-54.27349
2021-12-12 21:54:01+00:00,258.0,13.64,254.0,15.41,12.41,47.59359,-54.27349
2021-12-12 22:04:01+00:00,252.0,14.24,249.0,16.78,12.41,47.59359,-54.27349
2021-12-12 22:14:01+00:00,254.0,14.39,247.0,15.71,12.33,47.59359,-54.27349
2021-12-12 22:24:01+00:00,256.0,13.72,258.0,15.39,12.33,47.59359,-54.27349
2021-12-12 22:34:01+00:00,254.0,13.78,245.0,15.38,12.33,47.59359,-54.27349
2021-12-12 22:44:01+00:00,255.0,13.49,256.0,15.38,12.33,47.59359,-54.27349
2021-12-12 22:54:01+00:00,245.0,14.22,248.0,15.79,12.33,47.59359,-54.27349
2021-12-12 23:04:01+00:00,256.0,14.5,260.0,18.18,12.33,47.59359,-54.27349
2021-12-12 23:14:01+00:00,252.0,15.07,249.0,16.56,12.33,47.59359,-54.27349
2021-12-12 23:24:01+00:00,257.0,15.98,258.0,21.12,12.33,47.59359,-54.27349
2021-12-12 23:34:01+00:00,257.0,15.04,256.0,20.72,12.33,47.59359,-54.27349
2021-12-12 23:44:01+00:00,260.0,14.48,259.0,19.21,12.33,47.59359,-54.27349
2021-12-12 23:54:01+00:00,264.0,14.36,268.0,16.37,12.33,47.59359,-54.27349
